{"data":{"norad_id":55143,"intl_designator":"2023-004D","name":"ONEWEB-0543","alt_names":[],"object_type":"PAYLOAD","status":"ACTIVE","operator":null,"country":"UK","launch_date":"2023-01-10","launch_site_code":"AFETR","launch_vehicle":null,"mission":null,"orbit_class":"UNKNOWN","rcs_meters":null,"size_class":null,"mass_kg":null,"dimensions":null,"purposes":["comms"],"wikipedia_slug":null,"has_3d_model":false,"image_url":null,"decayed_at":null,"tle_current":{"epoch":"2026-05-25T02:20:17.508768Z","epoch_age_seconds":60555,"freshness":"FRESH","line1":"1 55143U 23004D   26145.09742487  .00002038  00000+0  51360-2 0  9995","line2":"2 55143  87.9160 340.0665 0001672  81.5925 278.5396 13.18677159166653","mean_motion":13.18677159,"eccentricity":0.0001672,"inclination_deg":87.916,"raan_deg":340.0665,"arg_perigee_deg":81.5925,"mean_anomaly_deg":278.5396,"bstar":0.005136,"rev_number":16665,"period_min":109.2003444643,"perigee_km":1188.5115972462,"apogee_km":1191.0423076719,"semimajor_km":7567.913952459,"source":"CELESTRAK","updated_at":"2026-05-25T13:38:22.639683Z"}}}